{"data":{"norad_id":57607,"intl_designator":"2023-119F","name":"STARLINK-30252","alt_names":[],"object_type":"PAYLOAD","status":"ACTIVE","operator":null,"country":"US","launch_date":"2023-08-11","launch_site_code":"AFETR","launch_vehicle":null,"mission":null,"orbit_class":"UNKNOWN","rcs_meters":null,"size_class":null,"mass_kg":null,"dimensions":null,"purposes":["comms"],"wikipedia_slug":null,"has_3d_model":false,"image_url":null,"decayed_at":null,"tle_current":{"epoch":"2026-05-25T00:06:34.053120Z","epoch_age_seconds":78161,"freshness":"FRESH","line1":"1 57607U 23119F   26145.00456080  .00002164  00000+0  88104-4 0  9999","line2":"2 57607  43.0044 355.6518 0001157 274.6799  85.3920 15.27587731154938","mean_motion":15.27587731,"eccentricity":0.0001157,"inclination_deg":43.0044,"raan_deg":355.6518,"arg_perigee_deg":274.6799,"mean_anomaly_deg":85.392,"bstar":8.8104e-5,"rev_number":15493,"period_min":94.266271637135,"perigee_km":482.23211018913,"apogee_km":483.81978329501,"semimajor_km":6861.1629467421,"source":"CELESTRAK","updated_at":"2026-05-25T13:38:18.355240Z"}}}